Location: Moscow
(55.7500°N, 37.5830°E)
Time: 23:10:27
(UTC+03:00)

A-11 Canister half - Pass Details

Date: 04 December 2021
Orbit: 1516 x 1684 km, 47.2° (Epoch: 16 January)

Event Time Altitude Azimuth Distance (km) Brightness Sun altitude
Rises 14:29:02 0° 284° (WNW) 4,906 11.9 7.3°
Reaches altitude 10° 14:33:18 10° 268° (W) 3,933 11.7 7.0°
Maximum altitude 14:39:47 20° 228° (SW) 3,235 12.4 6.5°
Drops below altitude 10° 14:46:19 10° 187° (S) 3,940 12.5 6.0°
Sets 14:50:39 0° 171° (S) 4,916 12.4 5.7°
